JST846 YMML-YBCG

Flight info

Callsign JST846
Flight time 1h 50m
Altitude 39000
Route NONIX H66 URKER Y54 BERNI
Aircraft A20N/M-SDE2E3FGHIRWXY/LB1

Departure

Time 2026-05-04 06:08
Airport Melbourne Airport (YMML)

Arrival

Time 2026-05-04 07:58
Airport Gold Coast Airport (YBCG)
Time Latitude Longitude Altitude Speed Heading
2026-05-04 05:43 -37.67120 144.84715 396 ft 0 kts 30°
2026-05-04 05:59 -37.67127 144.84710 393 ft 2 kts 26°
2026-05-04 05:59 -37.67142 144.84702 392 ft 2 kts 20°
2026-05-04 06:00 -37.67158 144.84696 391 ft 2 kts
2026-05-04 06:00 -37.67174 144.84696 393 ft 2 kts 335°
2026-05-04 06:00 -37.67186 144.84710 393 ft 2 kts 283°
2026-05-04 06:00 -37.67187 144.84721 393 ft 1 kts 266°
2026-05-04 06:01 -37.67187 144.84722 393 ft 0 kts 266°
2026-05-04 06:05 -37.67223 144.84395 386 ft 16 kts 262°
2026-05-04 06:05 -37.67373 144.84301 380 ft 21 kts 171°
2026-05-04 06:05 -37.67533 144.84332 374 ft 26 kts 172°
2026-05-04 06:06 -37.67707 144.84364 369 ft 22 kts 171°
2026-05-04 06:06 -37.67806 144.84346 367 ft 12 kts 210°
2026-05-04 06:06 -37.67849 144.84286 363 ft 7 kts 249°
2026-05-04 06:06 -37.67854 144.84259 363 ft 3 kts 260°
2026-05-04 06:07 -37.67866 144.84162 362 ft 16 kts 262°
2026-05-04 06:07 -37.67879 144.84012 361 ft 16 kts 267°
2026-05-04 06:07 -37.67841 144.83960 363 ft 5 kts 357°
2026-05-04 06:07 -37.67764 144.83947 370 ft 31 kts 352°
2026-05-04 06:08 -37.67336 144.83869 383 ft 90 kts 352°
2026-05-04 06:08 -37.66554 144.83723 417 ft 134 kts 352°
2026-05-04 06:08 -37.65620 144.83537 910 ft 137 kts 352°
2026-05-04 06:08 -37.64660 144.83376 1539 ft 140 kts 349°
2026-05-04 06:09 -37.63714 144.83222 2251 ft 136 kts 348°
2026-05-04 06:09 -37.62747 144.83025 2703 ft 152 kts 346°
2026-05-04 06:11 -37.52648 144.86229 7592 ft 263 kts 20°
2026-05-04 06:11 -37.50988 144.87275 8458 ft 269 kts 20°
2026-05-04 06:13 -37.37993 144.96940 13094 ft 354 kts 31°
2026-05-04 06:14 -37.25719 145.08195 17548 ft 374 kts 31°
2026-05-04 06:14 -37.23638 145.10099 18247 ft 377 kts 31°
2026-05-04 06:15 -37.21507 145.12049 18885 ft 380 kts 31°
2026-05-04 06:15 -37.19371 145.14005 19555 ft 381 kts 31°
2026-05-04 06:15 -37.17220 145.15971 20178 ft 384 kts 30°
2026-05-04 06:15 -37.15059 145.17946 20833 ft 386 kts 30°
2026-05-04 06:16 -37.12885 145.19930 21435 ft 388 kts 30°
2026-05-04 06:16 -37.10694 145.21928 22063 ft 390 kts 29°
2026-05-04 06:16 -37.08493 145.23934 22703 ft 392 kts 29°
2026-05-04 06:16 -37.06327 145.26050 23321 ft 398 kts 32°
2026-05-04 06:17 -37.04191 145.28267 23851 ft 400 kts 32°
2026-05-04 06:17 -37.02037 145.30500 24328 ft 403 kts 32°
2026-05-04 06:17 -36.99869 145.32745 24793 ft 405 kts 32°
2026-05-04 06:17 -36.97687 145.35000 25231 ft 408 kts 31°
2026-05-04 06:18 -36.95493 145.37267 25687 ft 410 kts 31°
2026-05-04 06:18 -36.93285 145.39545 26118 ft 413 kts 31°
2026-05-04 06:18 -36.91058 145.41841 26517 ft 416 kts 31°
2026-05-04 06:20 -36.75075 145.58261 29155 ft 435 kts 30°
2026-05-04 06:20 -36.72728 145.60664 29494 ft 438 kts 30°
2026-05-04 06:21 -36.63210 145.70388 30677 ft 449 kts 30°
2026-05-04 06:21 -36.60787 145.72858 30969 ft 451 kts 30°
2026-05-04 06:22 -36.58358 145.75333 31306 ft 452 kts 31°
2026-05-04 06:22 -36.55924 145.77812 31662 ft 452 kts 30°
2026-05-04 06:25 -36.24214 146.09781 35368 ft 456 kts 31°
2026-05-04 06:25 -36.21775 146.12290 35573 ft 456 kts 30°
2026-05-04 06:26 -36.19321 146.14788 35776 ft 456 kts 30°
2026-05-04 06:26 -36.16860 146.17272 35970 ft 457 kts 30°
2026-05-04 06:26 -36.14392 146.19754 36167 ft 457 kts 30°
2026-05-04 06:26 -36.11918 146.22234 36358 ft 458 kts 30°
2026-05-04 06:27 -36.02009 146.32155 37094 ft 459 kts 30°
2026-05-04 06:28 -35.99559 146.34603 37262 ft 459 kts 30°
2026-05-04 06:28 -35.97072 146.37086 37438 ft 459 kts 30°
2026-05-04 06:28 -35.94584 146.39568 37605 ft 459 kts 30°
2026-05-04 06:28 -35.92099 146.42045 37769 ft 460 kts 30°
2026-05-04 06:29 -35.89609 146.44524 37928 ft 460 kts 30°
2026-05-04 06:29 -35.87119 146.47002 38085 ft 460 kts 30°
2026-05-04 06:29 -35.84628 146.49478 38219 ft 460 kts 29°
2026-05-04 06:29 -35.82134 146.51956 38384 ft 460 kts 29°
2026-05-04 06:30 -35.79639 146.54432 38529 ft 460 kts 29°
2026-05-04 06:30 -35.77143 146.56907 38662 ft 461 kts 29°
2026-05-04 06:30 -35.74650 146.59378 38786 ft 460 kts 29°
2026-05-04 06:30 -35.72155 146.61848 38906 ft 460 kts 29°
2026-05-04 06:31 -35.67162 146.66783 38994 ft 460 kts 29°
2026-05-04 06:31 -35.62186 146.71697 39001 ft 459 kts 29°
2026-05-04 06:33 -35.42230 146.91314 39009 ft 459 kts 29°
2026-05-04 06:34 -35.37230 146.96198 39011 ft 460 kts 29°
2026-05-04 06:34 -35.32225 147.01088 39010 ft 460 kts 29°
2026-05-04 06:36 -35.12200 147.20582 39021 ft 461 kts 28°
2026-05-04 06:37 -35.07176 147.25450 39023 ft 461 kts 28°
2026-05-04 06:37 -35.02147 147.30316 39024 ft 461 kts 28°
2026-05-04 06:38 -34.97121 147.35173 39026 ft 461 kts 28°
2026-05-04 06:40 -34.77013 147.54519 39023 ft 461 kts 28°
2026-05-04 06:40 -34.71966 147.59355 39028 ft 462 kts 28°
2026-05-04 06:41 -34.66913 147.64189 39022 ft 462 kts 28°
2026-05-04 06:41 -34.61854 147.69022 39024 ft 462 kts 28°
2026-05-04 06:42 -34.56789 147.73852 39025 ft 463 kts 28°
2026-05-04 06:44 -34.36511 147.93114 39040 ft 464 kts 28°
2026-05-04 06:44 -34.31422 147.97930 39044 ft 464 kts 28°
2026-05-04 06:45 -34.26327 148.02743 39038 ft 464 kts 28°
2026-05-04 06:45 -34.21232 148.07548 39036 ft 464 kts 28°
2026-05-04 06:46 -34.16140 148.12343 39047 ft 464 kts 28°
2026-05-04 06:46 -34.11073 148.17107 39049 ft 465 kts 28°
2026-05-04 06:48 -33.90681 148.36205 39045 ft 463 kts 27°
2026-05-04 06:50 -33.70309 148.55165 39045 ft 462 kts 27°
2026-05-04 06:51 -33.65216 148.59888 39048 ft 463 kts 27°
2026-05-04 06:51 -33.60948 148.63840 39047 ft 463 kts 27°
2026-05-04 06:52 -33.55021 148.69319 39051 ft 463 kts 27°
2026-05-04 06:52 -33.50774 148.73239 39053 ft 463 kts 27°
2026-05-04 06:53 -33.45662 148.77950 39052 ft 464 kts 27°
2026-05-04 06:53 -33.40536 148.82667 39050 ft 464 kts 26°
2026-05-04 06:54 -33.35425 148.87367 39046 ft 463 kts 26°
2026-05-04 06:54 -33.30300 148.92068 39042 ft 464 kts 26°
2026-05-04 06:55 -33.25184 148.96755 39044 ft 464 kts 26°
2026-05-04 06:55 -33.20091 149.01414 39043 ft 464 kts 26°
2026-05-04 06:57 -32.99544 149.20141 39044 ft 465 kts 25°
2026-05-04 06:58 -32.94395 149.24814 39043 ft 466 kts 25°
2026-05-04 06:58 -32.89229 149.29495 39043 ft 467 kts 25°
2026-05-04 06:59 -32.84071 149.34169 39048 ft 465 kts 25°
2026-05-04 06:59 -32.78937 149.38807 39045 ft 466 kts 24°
2026-05-04 07:01 -32.58462 149.57252 39055 ft 467 kts 24°
2026-05-04 07:02 -32.53211 149.61778 39055 ft 466 kts 22°
2026-05-04 07:02 -32.47921 149.66243 39055 ft 467 kts 22°
2026-05-04 07:03 -32.42628 149.70714 39051 ft 467 kts 22°
2026-05-04 07:03 -32.37359 149.75145 39054 ft 468 kts 21°
2026-05-04 07:04 -32.32042 149.79607 39055 ft 469 kts 21°
2026-05-04 07:04 -32.26716 149.84072 39054 ft 469 kts 21°
2026-05-04 07:05 -32.21399 149.88521 39054 ft 468 kts 21°
2026-05-04 07:05 -32.16067 149.92975 39052 ft 470 kts 21°
2026-05-04 07:06 -32.08054 149.99659 39048 ft 470 kts 21°
2026-05-04 07:07 -32.02755 150.04071 39048 ft 469 kts 21°
2026-05-04 07:09 -31.81363 150.21813 39063 ft 472 kts 21°
2026-05-04 07:09 -31.75997 150.26249 39055 ft 471 kts 21°
2026-05-04 07:10 -31.70644 150.30666 39053 ft 470 kts 21°
2026-05-04 07:12 -31.49951 150.50282 39063 ft 485 kts 28°
2026-05-04 07:12 -31.44952 150.55523 39068 ft 486 kts 28°
2026-05-04 07:13 -31.39909 150.60801 39059 ft 485 kts 28°
2026-05-04 07:13 -31.34881 150.66054 39064 ft 484 kts 28°
2026-05-04 07:14 -31.22299 150.79162 39083 ft 484 kts 28°
2026-05-04 07:15 -31.17276 150.84385 39099 ft 483 kts 28°
2026-05-04 07:15 -31.12251 150.89597 39098 ft 483 kts 28°
2026-05-04 07:16 -31.07224 150.94807 39098 ft 483 kts 28°
2026-05-04 07:16 -31.02203 151.00003 39083 ft 482 kts 28°
2026-05-04 07:17 -30.97205 151.05167 39084 ft 481 kts 28°
2026-05-04 07:17 -30.92192 151.10337 39069 ft 483 kts 28°
2026-05-04 07:18 -30.87157 151.15524 39064 ft 483 kts 28°
2026-05-04 07:18 -30.82124 151.20704 39062 ft 483 kts 28°
2026-05-04 07:19 -30.77084 151.25880 39072 ft 483 kts 28°
2026-05-04 07:19 -30.72075 151.31020 39072 ft 482 kts 28°
2026-05-04 07:20 -30.67002 151.36214 39082 ft 483 kts 28°
2026-05-04 07:20 -30.61965 151.41367 39082 ft 482 kts 28°
2026-05-04 07:22 -30.41805 151.61912 39093 ft 483 kts 28°
2026-05-04 07:23 -30.36921 151.67365 39096 ft 492 kts 34°
2026-05-04 07:23 -30.32170 151.73078 39101 ft 492 kts 34°
2026-05-04 07:24 -30.27407 151.78781 39108 ft 492 kts 34°
2026-05-04 07:24 -30.22671 151.84434 39111 ft 492 kts 33°
2026-05-04 07:26 -30.03568 152.07141 39116 ft 494 kts 34°
2026-05-04 07:27 -29.98780 152.12814 39112 ft 492 kts 34°
2026-05-04 07:27 -29.93989 152.18476 39101 ft 493 kts 34°
2026-05-04 07:28 -29.89197 152.24134 39113 ft 493 kts 34°
2026-05-04 07:28 -29.84419 152.29771 39113 ft 491 kts 34°
2026-05-04 07:29 -29.82017 152.32596 38977 ft 493 kts 34°
2026-05-04 07:29 -29.79619 152.35418 38806 ft 492 kts 34°
2026-05-04 07:29 -29.77242 152.38219 38465 ft 487 kts 34°
2026-05-04 07:29 -29.74868 152.41010 37775 ft 489 kts 34°
2026-05-04 07:30 -29.72513 152.43769 37005 ft 491 kts 34°
2026-05-04 07:30 -29.70114 152.46578 36200 ft 494 kts 34°
2026-05-04 07:30 -29.67699 152.49406 35512 ft 495 kts 35°
2026-05-04 07:30 -29.65301 152.52221 35086 ft 490 kts 35°
2026-05-04 07:31 -29.62899 152.55032 34843 ft 498 kts 35°
2026-05-04 07:31 -29.60445 152.57894 34624 ft 505 kts 35°
2026-05-04 07:33 -29.43391 152.77791 31157 ft 501 kts 37°
2026-05-04 07:33 -29.40956 152.80624 30506 ft 493 kts 37°
2026-05-04 07:33 -29.38575 152.83400 29858 ft 484 kts 38°
2026-05-04 07:33 -29.36239 152.86119 29271 ft 472 kts 38°
2026-05-04 07:34 -29.33949 152.88780 28680 ft 466 kts 38°
2026-05-04 07:34 -29.31708 152.91377 28098 ft 462 kts 38°
2026-05-04 07:34 -29.29457 152.93982 27515 ft 458 kts 38°
2026-05-04 07:34 -29.27222 152.96567 26932 ft 455 kts 38°
2026-05-04 07:35 -29.24977 152.99164 26343 ft 451 kts 38°
2026-05-04 07:35 -29.22775 153.01710 25756 ft 448 kts 39°
2026-05-04 07:35 -29.20588 153.04238 25181 ft 445 kts 39°
2026-05-04 07:35 -29.18441 153.06717 24610 ft 443 kts 39°
2026-05-04 07:36 -29.16272 153.09220 24025 ft 440 kts 39°
2026-05-04 07:36 -29.14119 153.11704 23402 ft 438 kts 39°
2026-05-04 07:38 -28.99665 153.28345 19475 ft 407 kts 40°
2026-05-04 07:38 -28.98348 153.29857 19056 ft 403 kts 41°
2026-05-04 07:38 -28.95782 153.32807 18351 ft 389 kts 41°
2026-05-04 07:38 -28.93904 153.34965 17831 ft 378 kts 41°
2026-05-04 07:39 -28.92664 153.36388 17487 ft 370 kts 41°
2026-05-04 07:39 -28.90864 153.38451 16703 ft 367 kts 41°
2026-05-04 07:39 -28.89037 153.40536 15503 ft 376 kts 41°
2026-05-04 07:39 -28.87161 153.42673 14282 ft 385 kts 42°
2026-05-04 07:40 -28.84573 153.45399 13076 ft 378 kts 35°
2026-05-04 07:40 -28.83117 153.46535 12492 ft 372 kts 29°
2026-05-04 07:40 -28.80829 153.47850 11638 ft 365 kts 20°
2026-05-04 07:40 -28.78472 153.48882 10772 ft 361 kts 20°
2026-05-04 07:41 -28.76179 153.49895 10403 ft 343 kts 20°
2026-05-04 07:41 -28.74048 153.50843 10205 ft 322 kts 20°
2026-05-04 07:41 -28.72028 153.51745 10032 ft 303 kts 20°
2026-05-04 07:41 -28.70108 153.52601 9630 ft 292 kts 20°
2026-05-04 07:42 -28.68234 153.53435 9185 ft 284 kts 20°
2026-05-04 07:42 -28.66443 153.54232 9031 ft 275 kts 20°
2026-05-04 07:42 -28.64598 153.55050 8953 ft 289 kts 20°
2026-05-04 07:42 -28.62730 153.55879 8755 ft 287 kts 21°
2026-05-04 07:43 -28.60872 153.56703 8266 ft 285 kts 21°
2026-05-04 07:43 -28.59026 153.57522 7721 ft 283 kts 21°
2026-05-04 07:43 -28.57197 153.58334 7164 ft 281 kts 21°
2026-05-04 07:43 -28.55379 153.59140 6607 ft 279 kts 21°
2026-05-04 07:44 -28.53582 153.59936 6037 ft 276 kts 21°
2026-05-04 07:44 -28.51790 153.60723 5574 ft 275 kts 20°
2026-05-04 07:44 -28.50009 153.61419 5445 ft 265 kts 18°
2026-05-04 07:44 -28.48250 153.62064 5356 ft 271 kts 18°
2026-05-04 07:45 -28.46460 153.62718 5267 ft 269 kts 18°
2026-05-04 07:45 -28.44691 153.63372 5189 ft 270 kts 19°
2026-05-04 07:45 -28.42903 153.64041 5100 ft 268 kts 19°
2026-05-04 07:45 -28.41176 153.64690 4979 ft 253 kts 19°
2026-05-04 07:46 -28.39535 153.65307 4688 ft 245 kts 19°
2026-05-04 07:46 -28.37926 153.65906 4519 ft 244 kts 19°
2026-05-04 07:46 -28.36291 153.66501 4477 ft 247 kts 19°
2026-05-04 07:46 -28.34662 153.67090 4435 ft 245 kts 19°
2026-05-04 07:47 -28.33053 153.67671 4394 ft 246 kts 19°
2026-05-04 07:47 -28.31426 153.68260 4355 ft 245 kts 19°
2026-05-04 07:47 -28.29802 153.68849 4309 ft 246 kts 18°
2026-05-04 07:49 -28.18295 153.65356 3862 ft 248 kts 342°
2026-05-04 07:49 -28.16673 153.64707 3788 ft 247 kts 342°
2026-05-04 07:49 -28.15049 153.64058 3701 ft 247 kts 341°
2026-05-04 07:50 -28.13430 153.63409 3580 ft 246 kts 342°
2026-05-04 07:50 -28.11825 153.62755 3422 ft 244 kts 338°
2026-05-04 07:50 -28.10263 153.62114 3352 ft 234 kts 354°
2026-05-04 07:50 -28.08679 153.62097 3255 ft 224 kts
2026-05-04 07:51 -28.07141 153.62157 3081 ft 217 kts
2026-05-04 07:51 -28.05621 153.62084 3031 ft 226 kts 352°
2026-05-04 07:51 -28.04136 153.61522 3000 ft 226 kts 332°
2026-05-04 07:51 -28.02899 153.60425 3000 ft 228 kts 314°
2026-05-04 07:52 -28.01949 153.58990 2999 ft 227 kts 301°
2026-05-04 07:52 -28.01256 153.57398 2996 ft 221 kts 292°
2026-05-04 07:52 -28.00778 153.55812 2992 ft 205 kts 285°
2026-05-04 07:52 -28.00461 153.54298 3001 ft 195 kts 281°
2026-05-04 07:53 -28.00248 153.52750 2995 ft 199 kts 276°
2026-05-04 07:54 -28.02432 153.43479 2307 ft 160 kts 188°
2026-05-04 07:55 -28.03473 153.43530 2252 ft 145 kts 160°
2026-05-04 07:55 -28.04406 153.43989 2249 ft 146 kts 153°
2026-05-04 07:55 -28.05343 153.44455 2237 ft 148 kts 153°
2026-05-04 07:55 -28.06285 153.44933 2094 ft 147 kts 153°
2026-05-04 07:56 -28.07211 153.45409 1895 ft 145 kts 153°
2026-05-04 07:56 -28.08132 153.45886 1700 ft 146 kts 154°
2026-05-04 07:56 -28.09054 153.46365 1493 ft 146 kts 154°
2026-05-04 07:56 -28.09975 153.46842 1307 ft 145 kts 154°
2026-05-04 07:57 -28.10894 153.47304 1133 ft 145 kts 155°
2026-05-04 07:57 -28.11820 153.47743 928 ft 144 kts 154°
2026-05-04 07:57 -28.12725 153.48252 712 ft 144 kts 150°
2026-05-04 07:57 -28.13584 153.48768 463 ft 139 kts 149°
2026-05-04 07:58 -28.14419 153.49292 305 ft 136 kts 149°
2026-05-04 07:58 -28.15235 153.49811 123 ft 136 kts 149°
2026-05-04 07:58 -28.16055 153.50329 28 ft 129 kts 151°
2026-05-04 07:58 -28.16586 153.50666 26 ft 44 kts 151°
2026-05-04 07:59 -28.16757 153.50775 29 ft 33 kts 150°
2026-05-04 07:59 -28.16924 153.50892 28 ft 22 kts 125°
2026-05-04 07:59 -28.16905 153.51031 23 ft 6 kts 59°
2026-05-04 07:59 -28.16890 153.51059 23 ft 11 kts 59°
2026-05-04 08:00 -28.16846 153.51176 23 ft 19 kts 88°
2026-05-04 08:00 -28.16867 153.51272 24 ft 8 kts 80°
2026-05-04 08:00 -28.16854 153.51307 23 ft 0 kts 63°